GFSWCAN_prec_cthk_276.txt.gz
RH
53 52 48 42 39 38 36 36 36 37 37 39 42 44 45 55 60 61 67 69 64 60 59 70 74 63 64 59 56 43 40 37 33 33 32 29 29 33 33 35 38 39 40 38 38 38 40 33 32 33 36 35 35 36
57 49 43 38 39 37 36 36 38 38 38 41 41 45 50 56 66 71 72 75 70 61 54 69 71 64 67 66 61 50 49 50 45 36 35 34 31 34 35 38 35 40 38 41 41 41 37 36 35 36 38 38 39 41
54 45 44 39 38 37 37 38 40 43 41 43 45 45 50 59 68 77 77 79 77 64 55 61 65 68 74 71 64 56 51 50 47 39 39 38 33 33 39 39 36 36 35 36 37 40 39 39 40 42 42 42 41 41
49 46 42 38 38 40 41 42 42 46 46 46 50 50 48 57 73 83 86 87 84 72 62 62 71 66 77 75 68 60 60 55 46 39 40 43 37 35 36 37 39 38 37 42 46 46 44 45 45 44 43 39 38 39
46 40 39 40 43 44 48 47 44 45 48 50 54 58 51 51 71 87 91 94 84 71 66 57 63 67 78 78 74 69 67 62 51 45 42 45 43 41 42 41 45 43 43 46 52 49 50 48 46 46 41 43 46 44
41 41 43 45 47 49 48 48 47 50 54 55 60 62 49 51 59 74 92 95 86 74 72 72 69 70 82 81 78 75 73 67 60 56 50 47 46 45 48 52 48 46 45 45 51 52 53 49 46 44 38 44 46 47
45 46 46 49 51 54 54 56 53 52 54 60 65 61 48 46 58 72 93 97 79 76 78 79 76 61 66 73 75 72 73 72 67 63 58 50 47 46 48 52 48 47 46 46 50 49 47 46 47 43 38 42 47 45
47 47 47 50 53 57 60 59 54 53 55 64 65 57 47 49 58 73 93 96 77 82 81 84 75 70 63 72 75 70 68 75 71 67 62 57 51 53 51 47 47 47 48 48 46 44 45 44 46 50 51 51 48 53
48 49 49 52 56 59 61 59 59 57 61 67 60 51 47 57 82 95 97 92 82 87 86 81 79 79 73 77 72 65 65 74 73 70 60 60 61 55 49 44 43 44 44 47 46 45 41 45 51 51 49 49 45 46
51 53 54 55 56 59 59 60 58 61 67 63 52 56 66 85 94 96 97 89 83 86 85 80 78 82 78 78 70 61 59 61 67 64 59 53 49 42 44 42 40 39 40 42 43 46 44 45 49 49 57 65 64 57
56 56 57 55 56 58 62 62 60 70 68 57 68 74 92 98 98 96 97 87 83 84 77 74 73 78 77 80 74 59 59 53 53 46 44 43 42 40 37 36 37 38 39 38 42 44 44 46 52 56 59 61 61 63
61 60 57 56 60 64 63 62 68 71 61 68 81 93 97 98 98 98 92 82 79 74 70 69 75 82 88 90 87 77 61 56 48 43 39 40 39 38 46 44 44 46 45 47 51 49 49 50 53 55 57 58 58 55
68 65 61 58 60 65 62 66 70 66 63 72 94 98 98 97 98 95 87 78 72 65 67 69 75 77 88 80 85 84 66 65 58 52 44 41 40 48 51 51 52 56 59 60 57 53 50 51 56 59 60 61 57 54
74 71 65 60 63 65 64 67 65 63 79 96 97 98 98 97 97 91 86 78 74 70 71 69 70 74 82 87 87 86 73 70 64 53 51 50 55 57 62 63 63 64 70 66 60 57 57 57 56 57 54 53 53 55
72 68 64 61 65 64 66 63 61 77 96 98 97 98 97 94 93 90 86 82 78 76 71 68 70 67 75 86 88 87 86 77 72 67 62 59 62 62 67 71 69 93 81 76 66 60 60 59 55 52 52 53 55 59
69 66 63 64 63 65 63 62 78 93 98 98 97 98 96 98 97 91 86 84 75 71 77 93 77 76 83 88 88 87 84 73 68 71 72 72 72 67 70 66 65 74 76 70 61 59 59 57 54 54 60 61 62 63
68 71 65 64 63 62 61 81 95 96 97 98 98 97 98 99 97 93 89 87 76 77 78 83 90 88 95 91 81 78 77 75 79 78 75 88 87 83 75 77 77 70 63 58 58 57 55 58 63 66 68 69 66 63
66 67 63 62 61 61 74 80 92 96 96 94 96 97 97 95 97 98 97 82 76 73 77 85 86 91 85 86 86 78 73 75 78 79 84 86 90 87 85 72 60 58 58 58 59 62 65 66 66 62 61 60 58 56
60 60 60 61 66 76 87 92 95 93 91 90 90 91 92 91 95 94 93 91 85 78 72 76 85 91 88 84 80 75 77 74 78 81 88 93 90 85 77 67 63 62 65 66 65 63 62 62 60 59 56 54 54 49
60 58 60 71 82 92 95 94 90 86 87 88 89 85 86 89 96 96 95 94 87 81 78 82 88 84 90 84 79 81 86 84 86 92 92 89 83 74 71 69 66 68 67 66 67 71 71 70 66 62 58 55 50 44
63 72 83 92 96 95 94 91 91 89 86 88 85 89 89 94 98 94 94 91 91 95 93 98 98 93 89 86 82 83 89 83 86 82 77 74 74 72 68 69 70 72 73 71 71 69 68 65 64 60 56 47 39 36
76 82 86 90 90 90 87 88 89 86 88 84 87 90 92 98 98 96 93 93 95 94 95 96 97 95 89 84 89 94 91 89 87 81 74 71 71 72 72 72 73 74 74 73 69 69 66 61 53 44 37 35 34 32
95 96 97 97 97 95 91 88 87 88 89 89 90 90 91 97 96 94 96 96 97 97 97 96 94 94 93 93 91 89 88 84 81 78 75 75 74 77 74 73 75 75 77 71 65 60 53 42 37 36 36 34 31 29
94 96 98 97 97 98 93 92 91 93 92 90 92 95 96 95 92 93 96 96 96 96 96 97 99 98 96 93 92 88 86 85 84 84 83 80 73 74 74 72 73 74 69 61 53 49 45 40 35 31 31 29 28 28
93 93 97 98 97 98 98 96 96 94 95 97 97 97 93 89 91 94 96 98 95 95 93 93 94 96 99 96 93 90 87 87 86 81 78 74 75 75 76 75 69 61 55 52 50 45 38 32 30 30 28 26 27 28
91 90 94 92 93 93 94 95 95 96 95 94 92 87 86 88 93 97 97 98 95 92 91 90 90 93 93 92 89 87 87 86 83 81 78 76 76 76 76 68 62 57 57 53 45 39 34 30 28 27 26 28 28 31
89 87 88 85 89 92 93 94 96 96 93 90 87 88 89 91 96 92 93 96 93 91 90 91 91 92 91 91 89 88 91 87 81 77 77 77 75 77 72 61 55 51 45 40 37 32 28 25 26 27 28 30 33 34
87 85 87 84 86 89 94 94 92 93 92 91 94 94 92 91 90 83 84 84 84 87 89 90 91 91 92 92 89 87 86 84 84 79 73 68 58 52 50 48 47 45 40 34 24 22 23 26 26 29 33 33 32 31
85 81 83 85 86 87 88 91 91 89 88 91 92 89 85 81 76 76 76 77 77 78 80 78 70 72 73 69 70 72 76 75 68 61 52 46 42 40 40 36 31 31 28 22 19 22 24 26 30 34 33 32 32 34
81 81 81 81 82 83 81 81 83 82 81 81 79 81 79 74 72 68 67 64 63 61 61 62 62 60 61 60 56 51 48 47 46 45 45 45 44 41 38 32 25 23 23 26 29 30 32 35 38 37 35 34 37 40
78 78 80 81 81 79 79 79 78 77 77 76 77 75 72 69 67 65 65 64 63 60 58 58 56 54 53 52 50 49 48 46 44 41 38 39 39 37 32 28 26 25 28 30 30 32 36 40 42 41 39 40 44 45
80 76 79 81 81 79 78 78 77 77 77 76 77 75 73 72 69 67 65 61 57 54 52 51 50 50 48 44 42 41 41 40 39 38 37 36 33 30 27 22 22 25 28 29 31 34 40 42 45 46 45 43 44 44
79 80 81 80 80 78 77 77 78 79 79 78 76 74 70 70 65 60 58 57 55 53 52 51 47 41 39 38 38 40 41 41 41 38 35 27 19 19 20 22 26 30 31 32 35 40 45 48 49 50 49 46 46 47

GFSWCAN_prec_cthk_279.txt.gz
RH
71 61 54 53 48 45 42 40 38 34 33 32 33 35 35 39 42 48 50 48 50 48 49 47 58 65 66 57 56 48 43 39 30 26 25 24 28 32 33 30 28 27 29 29 31 35 31 27 29 30 33 37 38 39
59 55 55 49 46 44 42 41 35 33 35 34 34 34 34 40 42 47 55 54 50 48 48 49 52 59 67 60 61 58 54 51 44 39 30 26 29 34 35 37 32 31 30 32 32 33 32 33 34 35 36 38 41 43
64 59 50 48 47 40 37 37 37 34 38 37 36 36 36 38 45 48 57 61 56 51 45 51 44 58 66 57 65 65 59 57 49 42 39 33 29 32 35 37 37 36 33 35 37 39 39 39 40 39 39 41 44 46
62 54 51 45 38 37 38 39 43 39 38 39 39 38 39 39 45 51 57 66 64 60 56 56 50 59 67 62 68 69 65 58 53 46 42 36 31 31 32 32 38 38 39 44 46 44 43 44 43 40 41 45 49 49
55 45 42 40 40 40 41 44 46 43 41 41 42 41 43 43 45 56 61 73 76 71 62 66 51 59 72 65 70 74 69 62 58 52 43 36 35 34 35 36 38 38 40 42 45 42 41 42 40 43 49 52 52 46
46 45 44 44 45 47 47 47 48 47 44 45 46 45 48 50 53 56 74 76 77 74 70 79 62 62 70 71 70 74 74 70 60 54 45 40 37 37 42 46 39 39 38 38 40 44 42 42 45 47 50 53 51 43
46 47 47 47 48 51 53 53 55 52 49 47 48 50 55 59 55 61 78 85 83 85 92 85 72 68 73 79 74 72 77 74 66 55 50 46 41 41 45 48 43 41 42 43 45 43 46 46 51 53 54 52 44 46
49 49 49 49 51 55 55 56 55 54 53 52 53 59 65 60 52 53 69 83 97 98 95 88 86 77 77 80 79 81 82 79 68 59 56 53 47 47 50 50 47 48 48 48 46 45 45 48 52 57 55 52 48 45
52 52 52 53 57 57 58 60 58 58 57 56 61 66 63 54 51 54 66 84 97 99 90 85 88 82 77 75 76 82 81 86 79 73 63 56 56 52 52 53 50 49 48 49 48 47 50 52 55 53 50 46 44 46
56 56 60 62 61 57 59 57 59 59 58 65 68 63 61 60 59 68 80 97 97 94 84 83 85 86 76 77 77 79 88 87 86 78 67 62 60 58 56 55 55 51 48 47 48 50 50 48 47 49 52 54 51 53
64 66 67 66 60 58 62 63 64 62 73 71 67 66 74 77 87 96 98 98 95 87 78 80 89 94 89 80 79 82 81 75 76 73 76 68 63 64 60 60 56 53 51 49 46 43 42 40 45 55 57 57 54 55
73 75 71 67 63 64 66 66 65 72 74 69 70 68 82 95 98 98 97 98 88 74 72 79 90 92 92 86 88 86 81 72 65 67 69 77 64 56 51 52 55 52 48 46 44 42 45 48 51 53 54 54 55 54
79 81 77 70 63 66 67 65 74 73 64 74 86 92 98 97 98 98 97 90 81 72 72 78 86 87 90 90 92 84 80 80 70 60 55 54 60 55 42 44 48 49 48 47 48 50 50 50 50 52 54 56 57 58
79 77 76 68 65 68 67 71 70 65 65 77 88 96 97 95 98 96 90 87 77 75 76 75 79 82 84 87 88 90 77 77 69 62 56 54 50 46 45 46 50 52 52 54 54 57 57 57 54 56 57 58 57 54
76 72 69 65 67 69 69 67 62 74 92 96 97 98 97 95 96 90 87 83 80 82 82 75 75 77 85 92 94 90 83 73 71 66 58 56 56 54 54 58 63 64 60 59 61 64 62 61 60 60 59 53 49 49
67 65 66 68 68 67 65 68 80 91 97 97 98 96 94 94 94 91 88 86 82 83 82 79 79 76 83 83 83 82 80 76 67 70 66 62 63 64 65 64 66 69 67 67 72 73 70 62 56 53 50 51 55 59
69 68 68 66 65 62 74 91 97 97 97 97 97 97 98 97 93 90 87 86 86 87 88 88 83 80 76 75 76 76 80 79 76 74 71 69 73 76 77 78 78 68 66 70 73 70 59 55 51 51 56 60 64 63
62 63 63 60 66 82 89 94 95 96 97 97 99 96 98 96 94 90 87 85 85 86 85 88 90 80 74 75 78 78 76 82 79 79 79 78 82 82 82 82 79 72 68 62 60 57 54 55 59 61 59 56 55 56
59 58 57 64 77 89 96 98 98 96 94 94 97 98 96 97 95 90 87 83 80 84 86 88 86 80 82 86 87 83 82 86 85 86 86 87 90 90 89 84 76 65 55 56 57 60 59 57 55 54 52 49 46 46
58 63 74 82 86 93 95 95 95 93 91 94 95 95 95 99 98 95 91 84 79 76 79 84 86 86 86 87 85 88 85 85 85 84 91 96 97 92 86 73 61 60 59 62 61 60 59 60 58 57 56 53 50 48
77 80 83 87 89 91 93 93 94 92 92 90 89 92 97 98 96 93 93 88 79 77 81 84 86 88 89 85 85 89 88 89 89 88 87 90 90 84 74 65 64 65 66 66 65 64 67 67 64 59 56 53 48 42
90 88 87 87 89 92 90 89 88 88 90 90 93 96 97 97 97 96 92 87 87 86 85 87 85 84 91 85 86 93 91 92 91 91 85 76 72 71 70 69 69 71 70 70 69 68 68 65 59 52 46 40 36 35
92 90 93 93 93 92 88 87 87 85 88 88 90 91 96 97 98 97 96 97 95 96 94 94 92 91 92 97 96 96 95 94 91 85 77 73 74 74 75 73 72 72 71 70 68 66 60 48 41 38 38 36 34 31
95 97 97 95 93 90 86 87 86 87 90 88 88 92 96 98 96 97 98 97 99 97 92 94 95 95 96 98 97 97 96 94 88 81 78 74 77 76 76 76 76 75 73 66 60 53 47 45 42 37 34 32 30 30
94 94 97 96 94 94 91 89 89 89 90 93 96 95 95 95 96 98 99 98 99 98 94 95 95 96 99 94 92 91 88 89 83 83 82 81 79 78 78 77 78 74 65 58 54 48 43 40 37 34 31 30 29 30
92 91 95 94 91 95 92 91 93 94 93 92 90 89 90 92 95 97 98 98 98 94 95 96 98 96 95 95 96 92 87 86 85 83 81 78 80 80 78 75 67 61 58 55 53 50 42 34 32 30 28 29 29 30
92 88 90 94 95 96 96 96 96 95 90 86 85 87 87 93 96 93 92 93 91 89 87 91 94 98 95 93 87 81 81 78 77 78 78 78 75 73 71 73 67 63 56 49 43 37 30 27 28 28 27 28 30 32
88 92 94 93 95 96 97 93 92 91 89 88 91 91 87 90 88 88 89 89 89 89 91 93 92 89 89 87 82 83 84 84 80 75 73 74 74 66 61 56 52 49 46 42 37 29 26 25 26 26 28 30 30 28
85 89 89 90 91 93 93 93 92 92 91 90 89 87 84 81 82 82 81 81 88 88 89 88 89 90 91 91 88 85 84 81 80 74 67 61 52 49 45 41 39 38 37 34 28 22 21 25 26 27 31 32 30 30
82 83 84 86 85 85 87 89 86 85 85 85 83 78 74 73 73 72 71 73 74 69 64 67 68 66 68 71 71 72 71 70 59 49 46 45 44 42 40 35 29 26 24 21 21 26 28 28 29 34 36 38 38 38
76 76 78 79 80 81 83 81 81 78 78 78 77 73 71 68 66 63 62 61 60 58 58 58 57 56 54 52 50 48 46 45 44 43 40 39 39 38 36 32 26 23 25 27 29 29 31 32 35 38 41 42 42 42
75 78 79 78 76 76 77 77 77 75 74 73 72 70 68 67 65 63 62 60 59 57 55 53 52 50 48 47 45 43 41 40 39 39 38 36 35 34 31 26 23 23 24 27 28 29 31 36 40 43 45 48 49 50
76 79 80 79 78 78 77 76 76 76 76 76 74 72 69 68 64 60 58 57 56 55 56 55 52 46 43 41 40 39 38 37 36 35 35 33 29 24 19 20 23 26 26 28 31 33 37 41 46 49 51 53 55 55

GFSWCAN_prec_cthk_285.txt.gz
RH
75 76 73 72 72 62 58 56 51 46 47 43 41 37 34 33 35 36 38 38 36 35 30 38 47 47 46 50 50 46 39 36 39 38 31 28 29 26 26 25 24 23 25 25 26 26 22 23 28 27 25 27 29 34
76 75 77 77 76 62 59 55 51 49 47 42 39 39 36 36 30 33 37 40 39 38 33 30 33 43 42 44 52 52 49 40 41 42 42 39 31 30 28 26 25 26 24 23 21 21 24 23 24 25 28 30 34 34
77 82 87 82 74 66 58 52 48 46 43 39 34 35 34 33 33 33 36 37 38 35 29 28 24 29 39 38 45 53 53 52 46 44 44 44 41 31 31 29 30 30 29 28 28 28 27 27 27 29 31 32 33 34
89 91 90 84 75 64 56 51 47 44 43 42 39 36 34 34 32 33 32 37 40 41 37 30 29 28 32 40 39 48 59 61 55 47 47 44 41 33 30 30 30 31 33 35 36 33 32 33 32 34 35 36 36 37
86 82 73 70 61 56 55 55 51 47 44 43 42 41 40 36 35 33 30 34 39 42 41 34 29 28 28 30 37 47 58 64 59 58 52 46 39 36 32 32 31 28 31 30 29 30 30 34 40 39 39 38 39 37
51 46 44 47 51 52 53 54 54 49 46 47 47 43 39 36 34 34 32 36 38 41 46 37 32 31 31 32 36 44 60 70 67 67 58 48 41 36 37 32 28 26 28 28 28 31 32 36 40 43 41 42 41 40
47 50 53 55 58 58 58 57 57 57 56 56 51 45 41 38 37 36 40 45 47 50 52 44 38 38 36 35 40 46 67 72 71 73 65 56 47 42 38 30 26 26 26 28 30 34 39 41 44 45 44 42 43 42
54 58 60 62 62 63 63 64 62 59 57 55 52 49 46 44 41 39 39 52 55 57 57 54 47 44 42 43 47 53 69 76 73 74 71 62 53 47 39 31 27 25 26 29 32 35 40 43 43 45 43 44 42 42
63 67 69 70 72 72 69 68 63 57 55 55 53 49 48 46 45 44 43 56 66 66 69 59 53 51 51 49 54 62 62 71 72 74 73 67 64 54 40 35 30 29 28 30 35 37 39 41 44 45 45 45 46 44
70 78 82 82 83 82 72 74 68 64 61 59 55 54 52 50 57 64 64 64 73 75 68 59 56 59 63 62 61 63 66 72 79 79 78 71 61 55 48 44 41 35 34 38 42 45 46 47 45 46 47 51 49 49
77 82 86 88 87 83 79 77 75 67 62 62 60 59 66 76 79 81 80 76 72 68 57 54 56 61 63 80 71 66 73 81 84 85 78 68 58 59 54 51 48 45 45 47 47 44 43 42 46 50 53 53 54 53
79 82 84 86 84 81 76 74 72 67 66 67 70 75 84 91 92 93 80 80 75 69 55 57 53 50 60 88 77 72 80 81 86 85 78 68 56 60 58 57 57 56 50 45 42 42 45 47 51 52 55 57 55 51
70 73 80 80 75 70 69 71 69 68 72 78 81 80 78 77 83 82 80 73 76 81 85 81 70 63 73 87 82 76 70 76 75 81 76 64 63 63 63 66 62 57 53 49 47 48 48 52 55 58 59 57 54 51
61 63 67 68 69 69 73 73 78 77 72 75 83 84 80 84 78 83 86 88 87 88 90 94 90 89 98 90 98 75 73 79 90 89 70 61 63 65 66 68 66 64 61 57 58 58 57 60 63 59 55 53 54 54
62 64 65 69 72 76 76 70 66 63 66 78 80 85 89 92 92 97 97 96 94 90 92 93 97 96 94 98 94 92 95 88 75 67 58 58 59 62 65 68 69 69 69 65 63 62 57 53 52 54 54 56 59 59
63 67 69 72 73 72 66 69 72 79 85 92 94 96 96 98 97 98 97 94 92 91 92 98 95 94 95 94 92 90 85 73 66 70 61 58 60 60 64 71 74 78 78 66 57 49 48 53 55 59 63 66 70 65
61 69 81 81 86 92 89 91 95 97 97 96 96 96 97 94 98 98 97 93 93 92 88 94 87 83 89 96 97 89 83 81 75 73 67 67 65 64 69 67 74 76 75 67 58 58 59 63 66 70 70 70 67 60
69 76 84 89 93 95 96 98 98 98 98 97 98 95 92 90 92 97 95 98 97 95 94 93 94 87 91 94 92 89 88 87 81 75 69 66 68 73 77 79 79 79 76 74 76 69 67 70 71 74 71 63 53 54
70 74 80 88 93 96 97 98 97 98 98 98 97 94 95 90 93 95 94 91 94 93 91 90 91 93 93 94 92 90 88 83 79 79 74 69 69 73 77 83 79 80 84 78 70 73 72 70 66 57 53 53 54 54
76 78 83 89 91 94 96 98 98 98 98 97 97 98 96 93 97 97 96 92 94 94 95 96 95 97 97 96 89 83 83 86 81 77 72 72 76 76 79 80 80 77 74 76 76 74 68 57 52 54 52 51 48 48
77 78 82 85 90 94 95 96 98 98 98 98 96 97 98 96 97 95 96 94 93 94 95 93 94 88 90 92 89 87 84 86 86 85 82 84 85 85 88 88 85 84 86 83 75 65 53 54 53 52 49 50 49 46
78 83 86 88 87 88 88 90 95 98 98 97 98 97 95 96 93 91 95 97 97 97 98 95 90 90 93 93 92 95 94 93 91 91 91 89 88 89 91 93 91 89 82 75 59 55 55 54 55 55 54 51 49 44
82 84 85 86 85 86 84 88 94 96 97 97 96 94 93 94 93 88 91 92 94 97 98 96 96 97 96 95 95 95 96 94 93 91 88 92 96 96 94 90 86 80 73 65 60 59 60 60 58 54 49 43 39 37
80 83 83 85 84 86 84 86 92 97 97 97 97 96 95 95 92 93 94 92 95 98 96 97 96 96 96 97 98 96 97 96 91 91 90 86 83 83 82 80 77 71 67 65 65 62 57 52 47 42 39 38 38 38
81 82 87 85 84 84 87 90 96 96 98 97 98 97 96 95 93 93 90 91 94 94 97 99 98 96 95 95 99 99 98 92 83 79 77 76 72 72 71 70 66 63 60 56 55 53 49 48 44 42 41 42 41 38
81 83 88 88 86 89 91 97 97 97 97 98 98 96 97 97 98 97 97 95 97 96 100 97 96 98 99 99 94 95 92 87 85 80 77 74 71 69 68 68 65 61 58 55 50 47 43 41 42 44 42 37 36 33
87 89 91 92 96 97 95 95 98 97 98 98 99 98 97 97 98 98 95 96 98 98 98 99 98 95 93 95 92 89 90 88 85 82 80 77 75 72 68 63 60 57 55 50 45 42 44 43 38 34 32 33 31 31
87 91 94 95 97 98 95 95 95 96 96 96 97 96 95 95 98 98 98 94 94 98 96 98 98 97 93 92 89 89 88 84 82 80 77 74 73 72 70 69 66 62 56 53 45 37 33 32 31 31 31 30 29 30
88 89 92 90 91 93 92 89 88 90 93 95 95 94 93 93 95 95 96 95 95 97 94 93 93 95 93 90 86 85 81 78 77 76 74 74 70 63 61 59 55 51 46 43 40 37 29 28 28 28 28 29 30 30
88 89 87 86 87 89 90 88 87 86 85 86 85 86 86 86 88 91 94 96 95 90 90 87 82 82 83 85 82 82 81 79 76 72 63 56 50 43 38 35 35 35 35 34 31 28 23 22 25 27 28 31 34 35
82 83 81 81 83 84 84 86 85 83 76 75 76 77 78 80 83 79 74 83 89 89 89 85 80 80 82 83 82 79 77 74 64 54 46 44 43 41 37 34 29 26 26 24 21 22 25 26 27 28 31 35 38 41
78 79 79 81 83 80 79 81 81 78 74 69 66 62 61 63 63 60 58 59 59 58 59 62 65 65 66 66 65 63 58 52 48 44 41 38 36 35 34 32 28 24 21 20 22 25 29 31 32 34 37 41 43 46
75 76 76 76 77 77 76 78 76 73 71 70 68 63 60 60 59 57 55 53 52 52 52 52 51 50 49 46 44 42 41 40 39 38 37 36 33 31 30 29 24 19 19 22 26 29 30 31 33 36 39 43 46 49

GFSWCAN_prec_cthk_291.txt.gz
RH
70 73 75 76 77 78 80 82 76 68 62 57 52 47 42 35 32 34 43 30 33 37 48 45 47 51 48 44 45 45 32 29 32 30 29 30 25 27 24 26 19 16 17 19 22 25 23 32 33 25 28 30 31 35
81 84 84 85 88 87 88 88 82 77 66 60 57 49 46 39 35 35 43 38 34 31 38 40 39 42 46 46 46 41 41 41 42 36 35 37 33 32 30 31 28 19 17 20 20 24 27 31 27 22 31 30 28 26
57 58 60 60 62 61 62 66 72 77 70 65 58 48 43 42 40 36 41 39 36 31 23 22 25 28 35 37 44 39 38 45 42 41 47 46 46 43 34 29 35 26 27 24 25 31 35 31 28 25 25 23 24 28
48 48 49 51 48 48 48 51 54 64 71 67 65 52 45 42 39 37 42 43 38 39 31 29 25 28 30 37 35 39 45 41 44 38 40 40 38 35 34 34 34 31 26 27 37 36 30 33 30 25 25 27 27 29
46 48 49 50 53 53 54 54 53 53 55 59 61 58 49 41 37 34 39 39 38 41 45 41 35 24 24 28 36 35 38 40 37 37 35 33 38 40 33 34 36 39 36 27 35 33 26 26 26 27 29 29 31 30
46 50 55 59 61 62 62 62 61 59 59 55 58 62 54 41 36 37 38 40 37 37 37 36 35 33 26 22 25 35 38 37 41 42 38 39 42 41 33 28 29 33 35 33 32 36 29 31 28 30 34 36 34 36
50 55 62 66 70 73 74 70 67 66 67 67 63 62 53 44 38 43 46 44 33 36 38 36 32 28 30 30 28 28 34 41 44 46 45 44 41 39 33 30 26 24 37 35 34 45 39 32 29 33 38 40 40 42
54 62 67 71 79 84 82 81 79 75 69 66 59 55 51 45 39 42 36 35 38 39 40 40 38 39 32 32 34 32 31 36 44 46 47 49 45 47 35 27 28 31 37 37 30 32 34 33 35 38 40 40 42 46
56 60 66 74 80 89 90 87 79 71 64 61 58 53 49 48 47 50 39 38 42 45 45 43 37 46 40 39 35 42 38 38 40 49 48 55 54 51 35 30 29 32 43 36 31 34 40 36 38 41 42 44 45 44
59 60 63 68 75 81 81 80 80 75 66 63 61 63 61 56 48 44 42 47 45 47 46 41 42 56 49 47 48 54 55 51 44 39 52 52 48 44 43 42 36 32 34 30 31 34 45 43 42 41 45 48 47 43
58 61 63 64 65 69 71 70 69 68 68 68 68 66 64 50 54 55 57 52 47 50 45 34 30 39 42 57 54 50 53 50 47 43 41 47 43 40 44 45 39 32 28 28 25 31 35 37 42 46 48 48 48 44
59 60 61 65 67 65 64 64 63 68 69 64 61 61 57 63 64 66 57 53 50 46 45 42 38 31 46 45 66 78 60 63 54 45 42 37 33 41 39 38 39 36 32 33 34 46 48 48 50 51 50 49 46 48
53 56 58 62 66 67 65 62 61 60 58 63 66 66 66 68 73 69 63 57 54 48 55 52 51 42 39 42 54 75 70 60 59 52 46 46 43 38 45 37 42 42 37 42 45 51 53 54 55 53 53 52 53 55
56 56 60 62 59 58 60 63 65 67 70 72 73 74 73 72 67 68 67 66 73 77 74 66 58 58 44 45 49 63 66 60 56 54 48 48 46 44 49 43 47 46 48 56 62 56 53 54 58 62 60 56 52 53
60 68 74 80 80 76 73 69 62 63 67 72 72 72 65 57 58 67 66 62 66 77 77 73 67 58 65 56 47 61 70 60 51 51 52 55 56 53 49 47 55 60 69 70 65 62 63 61 62 60 57 56 59 60
62 68 75 79 86 94 95 93 91 91 90 88 85 84 84 90 91 87 81 79 75 72 73 77 78 74 76 59 60 50 62 62 53 52 53 55 66 69 58 64 70 76 79 73 71 70 65 68 65 61 62 64 66 68
69 77 81 88 94 97 98 98 98 98 95 95 95 93 95 96 95 92 84 85 83 81 83 86 83 74 75 61 54 48 58 70 72 66 63 55 60 60 64 74 82 80 81 73 74 73 72 70 67 67 67 71 72 68
71 81 86 93 96 98 98 99 98 96 95 94 96 97 98 98 98 98 94 86 84 86 85 85 88 97 81 61 50 53 65 67 79 74 72 72 70 71 73 79 86 82 77 77 77 74 71 70 74 76 73 75 66 58
66 75 84 90 93 98 98 97 96 94 92 94 94 95 96 97 98 98 98 97 95 94 97 96 94 89 78 69 63 61 67 75 81 79 72 67 68 70 75 77 83 82 79 77 74 75 76 75 76 77 78 70 65 68
70 72 77 83 89 93 96 96 97 96 92 89 91 93 98 98 95 96 97 97 97 98 97 97 92 93 94 85 76 71 79 80 86 89 74 68 77 77 76 80 84 86 81 76 80 79 78 81 81 82 81 75 74 73
69 73 77 80 86 93 93 94 92 91 91 91 90 92 92 98 98 99 99 98 99 98 99 97 96 95 93 91 87 87 86 88 91 88 85 85 86 86 82 89 95 96 89 83 80 82 82 82 84 89 82 76 68 54
72 73 74 78 82 91 94 94 94 91 89 87 90 91 92 89 94 94 98 97 96 98 97 98 99 99 99 95 94 94 94 91 88 87 84 85 86 86 88 92 90 89 82 82 82 81 83 86 86 84 77 63 48 49
71 73 75 76 82 90 91 93 94 90 89 88 89 89 91 93 93 93 96 98 97 98 98 99 98 99 96 94 95 94 93 91 88 86 82 87 91 89 88 87 86 83 85 88 85 86 82 82 79 72 60 52 52 50
71 74 79 78 79 89 91 93 93 92 90 89 88 89 89 93 94 96 96 97 97 99 99 99 98 98 95 96 97 97 97 95 90 86 83 83 89 93 93 93 89 89 86 83 82 83 78 74 69 61 56 56 56 51
77 77 81 83 85 93 93 92 93 91 88 88 87 86 85 91 94 97 98 98 99 98 95 97 98 96 96 94 94 94 94 95 96 96 94 91 87 85 80 81 84 88 86 82 75 73 74 69 66 60 58 56 51 46
81 82 84 87 92 96 94 96 96 95 91 88 85 85 88 89 91 96 98 98 98 96 97 97 97 98 99 94 94 94 92 90 90 93 93 94 92 90 87 86 86 85 86 84 84 82 75 68 60 55 52 48 46 44
84 86 88 89 94 97 95 94 95 95 92 90 89 89 88 86 94 95 98 98 98 99 96 95 95 99 98 95 92 89 88 86 82 78 76 78 81 85 88 87 80 69 72 73 71 64 56 53 52 51 48 45 42 40
83 86 88 88 93 94 95 95 93 93 93 92 93 93 95 97 98 95 97 98 97 96 97 98 96 93 94 92 91 88 84 79 74 72 70 68 65 63 61 59 57 55 55 56 56 54 51 49 45 44 42 38 34 35
81 86 87 90 90 94 90 92 93 91 93 94 93 95 96 94 94 95 97 94 93 97 96 95 94 92 90 90 90 86 84 81 79 76 73 71 70 67 65 61 58 55 50 46 46 46 45 42 39 36 35 36 33 30
78 79 85 85 84 87 87 90 89 89 90 89 90 92 95 96 93 94 95 96 96 92 94 91 89 89 86 86 83 81 79 78 76 72 71 69 65 61 60 57 56 54 49 45 41 36 31 30 29 29 28 28 28 29
75 78 82 84 85 84 81 84 85 86 85 83 83 82 87 93 95 95 92 95 95 92 92 89 91 93 85 83 82 79 76 74 70 65 63 53 47 43 41 41 41 42 37 35 33 30 25 23 23 24 25 28 32 33
78 79 80 83 83 81 77 77 78 79 77 78 78 73 73 74 82 90 92 87 83 83 84 85 85 87 86 81 77 76 72 67 60 55 47 46 43 40 36 34 33 32 32 31 30 28 26 21 24 28 30 30 31 38
74 74 78 79 78 77 75 74 70 69 69 70 71 69 68 65 61 60 63 69 69 70 66 66 66 66 64 64 64 62 58 53 48 42 37 35 34 34 34 33 31 28 27 24 22 24 23 26 31 32 33 38 43 45